カタログに戻る

STARLINK-11147

運用中通信VLEO
NORAD 60301·PAYLOAD·🇺🇸 United States

打ち上げ Jul 28, 2024 から Vandenberg Space Force Base

Loading…

次のパス (今後24時間)

TLE

最新Source: CelesTrak SupGP

元期: Sep 14, 2026, 22:20 UTC

1 60301C 24133A   26257.93104167  .00004659  00000+0  38378-4 0  2579
2 60301  53.1563 293.5486 0001191  94.9571 266.3400 15.69704957    14

AllMySatでSTARLINK-11147をリアルタイム追跡

Download on the App Store